| time (UTC) | temp F | wind direction | speed MPH | gust MPH | rain 1hr in | rain 24hr in | rain mn in | humidity % | barometer mb |
| 20260903100313 | 37 | 247 | 0.0 | 0.0 | 0.00 | 0.00 | 0.00 | 92 | 1019.7 |
| 20260903095413 | 37 | 247 | 0.0 | 0.0 | 0.00 | 0.00 | 0.00 | 92 | 1019.7 |
| 20260903093415 | 37 | 247 | 0.0 | 0.0 | 0.00 | 0.00 | 0.00 | 92 | 1019.9 |
| 20260903093316 | 37 | 247 | 0.0 | 0.0 | 0.00 | 0.00 | 0.00 | 91 | 1019.9 |
| 20260903092214 | 37 | 247 | 0.0 | 0.0 | 0.00 | 0.00 | 0.00 | 91 | 1020.0 |
| 20260903091215 | 38 | 247 | 0.0 | 0.0 | 0.00 | 0.00 | 0.00 | 91 | 1020.0 |
| 20260903090214 | 38 | 247 | 0.0 | 0.0 | 0.00 | 0.00 | 0.00 | 90 | 1020.1 |
| 20260903085216 | 38 | 247 | 0.0 | 0.0 | 0.00 | 0.00 | 0.00 | 90 | 1020.2 |
| 20260903085114 | 38 | 247 | 0.0 | 0.0 | 0.00 | 0.00 | 0.00 | 90 | 1020.2 |
| 20260903084114 | 38 | 247 | 0.0 | 0.0 | 0.00 | 0.00 | 0.00 | 90 | 1020.2 |
| 20260903083114 | 38 | 247 | 0.0 | 0.0 | 0.00 | 0.00 | 0.00 | 89 | 1020.2 |
| 20260903083015 | 38 | 247 | 0.0 | 0.0 | 0.00 | 0.00 | 0.00 | 89 | 1020.2 |
| 20260903082015 | 38 | 247 | 0.0 | 0.0 | 0.00 | 0.00 | 0.00 | 88 | 1020.3 |
| 20260903081015 | 39 | 247 | 0.0 | 0.0 | 0.00 | 0.00 | 0.00 | 88 | 1020.3 |
| 20260903080915 | 39 | 247 | 0.0 | 0.0 | 0.00 | 0.00 | 0.00 | 87 | 1020.2 |
| 20260903075914 | 39 | 247 | 0.0 | 0.0 | 0.00 | 0.00 | 0.00 | 88 | 1020.4 |
| 20260903074914 | 39 | 247 | 0.0 | 0.0 | 0.00 | 0.00 | 0.00 | 88 | 1020.3 |
| 20260903073917 | 39 | 247 | 0.0 | 0.0 | 0.00 | 0.00 | 0.00 | 86 | 1020.4 |
| 20260903072915 | 39 | 247 | 0.0 | 0.0 | 0.00 | 0.00 | 0.00 | 87 | 1020.4 |
| 20260903071914 | 39 | 247 | 0.0 | 0.0 | 0.00 | 0.00 | 0.00 | 87 | 1020.6 |
| 20260903065919 | 40 | 247 | 0.0 | 0.0 | 0.00 | 0.00 | 0.00 | 85 | 1020.6 |
| 20260903063917 | 40 | 247 | 0.0 | 0.0 | 0.00 | 0.00 | 0.00 | 84 | 1020.8 |
| 20260903062920 | 41 | 247 | 0.0 | 0.0 | 0.00 | 0.00 | 0.00 | 82 | 1020.7 |
| 20260903062017 | 41 | 247 | 0.0 | 0.0 | 0.00 | 0.00 | 0.00 | 83 | 1020.8 |
| 20260903061019 | 41 | 247 | 0.0 | 0.0 | 0.00 | 0.00 | 0.00 | 82 | 1020.8 |
| 20260903055018 | 42 | 247 | 0.0 | 0.0 | 0.00 | 0.00 | 0.00 | 80 | 1020.9 |
| 20260903054919 | 42 | 247 | 0.0 | 0.0 | 0.00 | 0.00 | 0.00 | 81 | 1020.9 |
| 20260903053918 | 42 | 247 | 0.0 | 0.0 | 0.00 | 0.00 | 0.00 | 80 | 1021.2 |
| 20260903052918 | 43 | 247 | 0.0 | 0.0 | 0.00 | 0.00 | 0.00 | 79 | 1021.2 |
| 20260903051017 | 44 | 247 | 0.0 | 0.0 | 0.00 | 0.00 | 0.00 | 77 | 1021.4 |
| 20260903045017 | 44 | 247 | 0.0 | 0.0 | 0.00 | 0.00 | 0.00 | 75 | 1021.7 |
| 20260903044020 | 45 | 247 | 0.0 | 0.0 | 0.00 | 0.00 | 0.00 | 75 | 1021.7 |
| 20260903043918 | 45 | 247 | 0.0 | 0.0 | 0.00 | 0.00 | 0.00 | 74 | 1021.7 |
| 20260903043017 | 46 | 247 | 0.0 | 0.0 | 0.00 | 0.00 | 0.00 | 73 | 1021.4 |
| 20260903042017 | 46 | 247 | 0.0 | 0.0 | 0.00 | 0.00 | 0.00 | 73 | 1021.4 |
| 20260903041117 | 46 | 247 | 0.0 | 0.0 | 0.00 | 0.00 | 0.00 | 72 | 1021.4 |
| 20260903040117 | 47 | 247 | 0.0 | 0.0 | 0.00 | 0.00 | 0.00 | 72 | 1021.4 |
| 20260903040017 | 47 | 247 | 0.0 | 0.0 | 0.00 | 0.00 | 0.00 | 71 | 1021.4 |
| 20260903034017 | 48 | 247 | 0.0 | 0.0 | 0.00 | 0.00 | 0.00 | 70 | 1021.1 |
| 20260903032018 | 49 | 247 | 0.0 | 0.0 | 0.00 | 0.00 | 0.00 | 68 | 1020.8 |
| 20260903031919 | 49 | 247 | 0.0 | 0.0 | 0.00 | 0.00 | 0.00 | 68 | 1020.8 |
| 20260903031820 | 50 | 247 | 0.0 | 0.0 | 0.00 | 0.00 | 0.00 | 68 | 1020.9 |
| 20260903030918 | 50 | 247 | 0.0 | 0.0 | 0.00 | 0.00 | 0.00 | 68 | 1020.9 |
| 20260903025916 | 51 | 247 | 0.0 | 0.0 | 0.00 | 0.00 | 0.00 | 67 | 1020.8 |
| 20260903024917 | 52 | 247 | 0.0 | 0.0 | 0.00 | 0.00 | 0.00 | 65 | 1020.8 |
| 20260903024818 | 52 | 247 | 0.0 | 0.0 | 0.00 | 0.00 | 0.00 | 64 | 1020.7 |
| 20260903023818 | 53 | 247 | 0.0 | 0.0 | 0.00 | 0.00 | 0.00 | 63 | 1020.7 |
| 20260903022817 | 54 | 247 | 0.0 | 0.0 | 0.00 | 0.00 | 0.00 | 61 | 1020.8 |
| 20260903020817 | 56 | 247 | 0.0 | 0.0 | 0.00 | 0.00 | 0.00 | 59 | 1020.8 |
| 20260903015817 | 57 | 247 | 0.0 | 0.0 | 0.00 | 0.00 | 0.00 | 56 | 1021.0 |
| 20260903015718 | 57 | 247 | 0.0 | 0.0 | 0.00 | 0.00 | 0.00 | 56 | 1020.9 |
| 20260903015617 | 57 | 249 | 0.0 | 0.0 | 0.00 | 0.00 | 0.00 | 56 | 1020.8 |
| 20260903014616 | 58 | 292 | 0.0 | 0.0 | 0.00 | 0.00 | 0.00 | 53 | 1020.9 |
| 20260903013617 | 60 | 298 | 0.0 | 0.0 | 0.00 | 0.00 | 0.00 | 50 | 1020.8 |
| 20260903012618 | 61 | 225 | 0.0 | 0.0 | 0.00 | 0.00 | 0.00 | 48 | 1021.0 |
| 20260903011617 | 62 | 208 | 1.0 | 3.0 | 0.00 | 0.00 | 0.00 | 46 | 1020.9 |
| 20260903011517 | 62 | 180 | 1.0 | 3.0 | 0.00 | 0.00 | 0.00 | 45 | 1020.9 |
| 20260903010616 | 64 | 180 | 0.0 | 1.0 | 0.00 | 0.00 | 0.00 | 43 | 1020.8 |
| 20260903005618 | 64 | 178 | 0.0 | 0.0 | 0.00 | 0.00 | 0.00 | 42 | 1020.8 |
| 20260903004616 | 65 | 200 | 1.0 | 4.0 | 0.00 | 0.00 | 0.00 | 43 | 1020.8 |
| 20260903003633 | 65 | 166 | 1.0 | 7.0 | 0.00 | 0.00 | 0.00 | 41 | 1020.8 |
| 20260903002616 | 66 | 180 | 2.0 | 3.0 | 0.00 | 0.00 | 0.00 | 40 | 1020.9 |
| 20260903001617 | 67 | 214 | 0.0 | 1.0 | 0.00 | 0.00 | 0.00 | 39 | 1020.8 |
| 20260902235617 | 67 | 219 | 1.0 | 7.0 | 0.00 | 0.00 | 0.00 | 39 | 1020.9 |
| 20260902234617 | 67 | 197 | 1.0 | 5.0 | 0.00 | 0.00 | 0.00 | 39 | 1020.9 |
| 20260902234517 | 67 | 198 | 3.0 | 7.0 | 0.00 | 0.00 | 0.00 | 38 | 1020.9 |
| 20260902233518 | 68 | 237 | 3.0 | 7.0 | 0.00 | 0.00 | 0.00 | 39 | 1020.8 |
| 20260902232518 | 68 | 203 | 1.0 | 4.0 | 0.00 | 0.00 | 0.00 | 38 | 1020.9 |
| 20260902231519 | 68 | 250 | 2.0 | 6.0 | 0.00 | 0.00 | 0.00 | 36 | 1020.9 |
| 20260902230616 | 69 | 246 | 3.0 | 9.0 | 0.00 | 0.00 | 0.00 | 36 | 1021.0 |
| 20260902225617 | 68 | 270 | 1.0 | 2.0 | 0.00 | 0.00 | 0.00 | 35 | 1021.0 |
| 20260902224620 | 69 | 206 | 0.0 | 3.0 | 0.00 | 0.00 | 0.00 | 37 | 1021.1 |
| 20260902223616 | 68 | 273 | 1.0 | 2.0 | 0.00 | 0.00 | 0.00 | 37 | 1021.2 |
| 20260902223518 | 68 | 234 | 0.0 | 4.0 | 0.00 | 0.00 | 0.00 | 36 | 1021.2 |
| 20260902222517 | 68 | 170 | 0.0 | 2.0 | 0.00 | 0.00 | 0.00 | 36 | 1021.3 |
| 20260902221517 | 69 | 219 | 1.0 | 4.0 | 0.00 | 0.00 | 0.00 | 36 | 1021.2 |
| 20260902220518 | 68 | 195 | 3.0 | 7.0 | 0.00 | 0.00 | 0.00 | 34 | 1021.4 |
| 20260902215517 | 68 | 281 | 3.0 | 6.0 | 0.00 | 0.00 | 0.00 | 35 | 1021.5 |
| 20260902215418 | 68 | 251 | 1.0 | 2.0 | 0.00 | 0.00 | 0.00 | 35 | 1021.5 |
| 20260902213416 | 68 | 120 | 3.0 | 4.0 | 0.00 | 0.00 | 0.00 | 33 | 1021.6 |
| 20260902212417 | 68 | 239 | 3.0 | 4.0 | 0.00 | 0.00 | 0.00 | 34 | 1021.7 |
| 20260902211516 | 67 | 135 | 3.0 | 3.0 | 0.00 | 0.00 | 0.00 | 33 | 1021.4 |
| 20260902205517 | 68 | 231 | 3.0 | 6.0 | 0.00 | 0.00 | 0.00 | 36 | 1021.5 |
| 20260902204616 | 67 | 186 | 1.0 | 4.0 | 0.00 | 0.00 | 0.00 | 36 | 1021.5 |
| 20260902203617 | 68 | 213 | 4.0 | 10.0 | 0.00 | 0.00 | 0.00 | 34 | 1021.4 |
| 20260902202633 | 69 | 220 | 5.0 | 8.0 | 0.00 | 0.00 | 0.00 | 34 | 1021.4 |
| 20260902201718 | 68 | 223 | 2.0 | 6.0 | 0.00 | 0.00 | 0.00 | 33 | 1021.4 |
| 20260902200617 | 68 | 219 | 2.0 | 8.0 | 0.00 | 0.00 | 0.00 | 34 | 1021.4 |
| 20260902195716 | 68 | 248 | 1.0 | 2.0 | 0.00 | 0.00 | 0.00 | 34 | 1021.3 |
| 20260902195617 | 68 | 134 | 2.0 | 6.0 | 0.00 | 0.00 | 0.00 | 34 | 1021.2 |
| 20260902195518 | 68 | 206 | 2.0 | 3.0 | 0.00 | 0.00 | 0.00 | 34 | 1021.2 |
| 20260902195419 | 68 | 228 | 2.0 | 4.0 | 0.00 | 0.00 | 0.00 | 34 | 1021.3 |
| 20260902193518 | 69 | 360 | 1.0 | 4.0 | 0.00 | 0.00 | 0.00 | 31 | 1021.2 |
| 20260902192617 | 69 | 204 | 1.0 | 3.0 | 0.00 | 0.00 | 0.00 | 30 | 1021.2 |
| 20260902191617 | 69 | 19 | 2.0 | 5.0 | 0.00 | 0.00 | 0.00 | 30 | 1021.1 |
| 20260902191517 | 69 | 24 | 1.0 | 4.0 | 0.00 | 0.00 | 0.00 | 31 | 1021.2 |
| 20260902191419 | 69 | 357 | 1.0 | 6.0 | 0.00 | 0.00 | 0.00 | 31 | 1021.1 |
| 20260902190417 | 68 | 127 | 1.0 | 2.0 | 0.00 | 0.00 | 0.00 | 32 | 1021.4 |
| 20260902190319 | 68 | 306 | 1.0 | 3.0 | 0.00 | 0.00 | 0.00 | 32 | 1021.5 |
| 20260902184318 | 68 | 122 | 3.0 | 4.0 | 0.00 | 0.00 | 0.00 | 30 | 1021.5 |
| 20260902183316 | 68 | 90 | 0.0 | 2.0 | 0.00 | 0.00 | 0.00 | 32 | 1021.5 |
| 20260902182317 | 66 | 351 | 3.0 | 4.0 | 0.00 | 0.00 | 0.00 | 32 | 1021.5 |
| 20260902180419 | 66 | 132 | 3.0 | 7.0 | 0.00 | 0.00 | 0.00 | 32 | 1021.5 |
| 20260902173416 | 65 | 100 | 0.0 | 2.0 | 0.00 | 0.00 | 0.00 | 32 | 1021.7 |
| 20260902165616 | 63 | 135 | 2.0 | 3.0 | 0.00 | 0.00 | 0.00 | 33 | 1021.7 |
| 20260902164617 | 63 | 28 | 0.0 | 2.0 | 0.00 | 0.00 | 0.00 | 36 | 1021.7 |
| 20260902163617 | 62 | 63 | 0.0 | 1.0 | 0.00 | 0.00 | 0.00 | 38 | 1021.7 |
| 20260902162617 | 62 | 247 | 0.0 | 0.0 | 0.00 | 0.00 | 0.00 | 43 | 1021.7 |
| 20260902162516 | 62 | 247 | 0.0 | 0.0 | 0.00 | 0.00 | 0.00 | 44 | 1021.7 |
| 20260902161517 | 60 | 247 | 0.0 | 0.0 | 0.00 | 0.00 | 0.00 | 46 | 1021.6 |
| 20260902161415 | 60 | 247 | 0.0 | 0.0 | 0.00 | 0.00 | 0.00 | 47 | 1021.6 |
| 20260902160417 | 57 | 247 | 0.0 | 0.0 | 0.00 | 0.00 | 0.00 | 50 | 1021.7 |
| 20260902154516 | 52 | 247 | 0.0 | 0.0 | 0.00 | 0.00 | 0.00 | 58 | 1021.7 |
| 20260902153516 | 50 | 247 | 0.0 | 0.0 | 0.00 | 0.00 | 0.00 | 61 | 1021.4 |
| 20260902152616 | 48 | 247 | 0.0 | 0.0 | 0.00 | 0.00 | 0.00 | 65 | 1021.4 |
| 20260902151617 | 45 | 247 | 0.0 | 0.0 | 0.00 | 0.00 | 0.00 | 69 | 1021.2 |
| 20260902150617 | 43 | 247 | 0.0 | 0.0 | 0.00 | 0.00 | 0.00 | 73 | 1021.0 |
| 20260902145616 | 40 | 247 | 0.0 | 0.0 | 0.00 | 0.00 | 0.00 | 79 | 1020.9 |
| 20260902144617 | 36 | 247 | 0.0 | 0.0 | 0.00 | 0.00 | 0.00 | 86 | 1020.6 |
| 20260902143617 | 34 | 247 | 0.0 | 0.0 | 0.00 | 0.00 | 0.00 | 89 | 1020.4 |
| 20260902142615 | 33 | 247 | 0.0 | 0.0 | 0.00 | 0.00 | 0.00 | 88 | 1020.4 |
| 20260902140616 | 32 | 247 | 0.0 | 0.0 | 0.00 | 0.00 | 0.00 | 89 | 1020.3 |
| 20260902135617 | 32 | 247 | 0.0 | 0.0 | 0.00 | 0.00 | 0.00 | 88 | 1020.4 |
| 20260902134716 | 32 | 247 | 0.0 | 0.0 | 0.00 | 0.00 | 0.00 | 89 | 1020.4 |
| 20260902133815 | 32 | 247 | 0.0 | 0.0 | 0.00 | 0.00 | 0.00 | 88 | 1020.3 |
| 20260902131816 | 32 | 247 | 0.0 | 0.0 | 0.00 | 0.00 | 0.00 | 87 | 1020.4 |
| 20260902131717 | 32 | 247 | 0.0 | 0.0 | 0.00 | 0.00 | 0.00 | 87 | 1020.4 |
| 20260902130718 | 32 | 247 | 0.0 | 0.0 | 0.00 | 0.00 | 0.00 | 87 | 1020.4 |
| 20260902124717 | 32 | 247 | 0.0 | 0.0 | 0.00 | 0.00 | 0.00 | 87 | 1020.4 |
| 20260902123733 | 32 | 247 | 0.0 | 0.0 | 0.00 | 0.00 | 0.00 | 85 | 1020.3 |
| 20260902122816 | 33 | 247 | 0.0 | 0.0 | 0.00 | 0.00 | 0.00 | 85 | 1020.4 |
| 20260902121816 | 33 | 247 | 0.0 | 0.0 | 0.00 | 0.00 | 0.00 | 86 | 1020.3 |
| 20260902121716 | 33 | 247 | 0.0 | 0.0 | 0.00 | 0.00 | 0.00 | 85 | 1020.3 |
| 20260902120815 | 33 | 247 | 0.0 | 0.0 | 0.00 | 0.00 | 0.00 | 85 | 1020.3 |
| 20260902115915 | 33 | 247 | 0.0 | 0.0 | 0.00 | 0.00 | 0.00 | 86 | 1020.3 |
| 20260902113918 | 33 | 247 | 0.0 | 0.0 | 0.00 | 0.00 | 0.00 | 87 | 1020.2 |
| 20260902112917 | 33 | 247 | 0.0 | 0.0 | 0.00 | 0.00 | 0.00 | 87 | 1020.1 |
| 20260902111918 | 33 | 247 | 0.0 | 0.0 | 0.00 | 0.00 | 0.00 | 88 | 1020.2 |
| 20260902110915 | 33 | 247 | 0.0 | 0.0 | 0.00 | 0.00 | 0.00 | 87 | 1020.2 |
| 20260902105916 | 34 | 247 | 0.0 | 0.0 | 0.00 | 0.00 | 0.00 | 88 | 1020.2 |
| 20260902104917 | 34 | 247 | 0.0 | 0.0 | 0.00 | 0.00 | 0.00 | 89 | 1020.2 |
| 20260902102015 | 35 | 247 | 0.0 | 0.0 | 0.00 | 0.00 | 0.00 | 91 | 1020.3 |
| 20260902101017 | 35 | 247 | 0.0 | 0.0 | 0.00 | 0.00 | 0.00 | 90 | 1020.3 |